Home   Weather   Lakewood   Past weeks

Flag for USA Past Weather in Lakewood, New Jersey, USA — Yesterday and Last 2 Weeks

Now
86 °F

Passing clouds.


Feels Like: 89 °F
Forecast: 69 / 87 °F
Wind: 12 mph from Southeast

Location: Lakehurst Naval Air Station

Current Time: Aug 31, 2016 at 5:52:07 PM

Latest Report: Aug 31, 2016 at 5:00 PM


Visibility: 10 mi

Pressure: 29.87 "Hg

Humidity: 55%

Dew Point: 68 °F

Location of LakewoodLocation

Past Weather in Lakewood — Graph

°F

Lakewood Temperature Yesterday

Maximum temperature yesterday: 84 °F (at 3:00 PM)
Minimum temperature yesterday: 66 °F (at 5:00 AM)
Average temperature yesterday: 75 °F

High & Low Weather Summary for the Past Weeks

 TemperatureHumidityPressure
High93 °F (Aug 29, 4:00 PM)100% (Aug 18, 6:00 AM)30.32 "Hg (Aug 18, 6:00 AM)
Low51 °F (Aug 23, 3:00 AM)33% (Aug 27, 12:00 PM)29.77 "Hg (Aug 21, 4:00 PM)
Average76 °F73%30.05 "Hg
* Reported Aug 16 4:00 PM — Aug 31 4:00 PM, Lakewood, Weather by CustomWeather, © 2016

Note: Actual official high and low records may vary slightly from our data, if they occured in-between our weather recording intervals... More about our weather records

Advertising

Lakewood Weather History for the Previous 24 Hours

Scroll right to see more
 ConditionsComfort  
Time TempWeatherWind HumidityBarometerVisibility
4:00 PM
Wed, Aug 31
88 °FOvercast.13 mph52%29.88 "Hg10 mi
3:00 PM90 °FOvercast.5 mph39%29.90 "Hg10 mi
2:00 PM87 °FSunny.No wind42%29.92 "Hg10 mi
1:00 PM89 °FScattered clouds.5 mph41%29.94 "Hg10 mi
12:00 PM87 °FSunny.7 mph46%29.96 "Hg10 mi
11:00 AM83 °FSunny.7 mph61%29.98 "Hg10 mi
10:06 AM79 °FScattered clouds.6 mph77%29.99 "Hg10 mi
9:00 AM74 °FFog.3 mph97%30.00 "Hg4 mi
8:00 AM70 °FFog.No wind100%30.01 "Hg0 mi
7:00 AM66 °FFog.No wind100%30.01 "Hg0 mi
6:00 AM65 °FFog.No wind100%30.00 "Hg0 mi
5:00 AM64 °FFog.No wind100%30.01 "Hg0 mi
4:00 AM64 °FFog.No wind100%30.02 "Hg1 mi
3:00 AM65 °FFog.No wind100%30.03 "Hg6 mi
2:00 AM68 °FFog.No wind100%30.03 "Hg0 mi
1:00 AM69 °FPassing clouds.No wind96%30.04 "Hg8 mi
12:00 AM68 °FClear.No wind96%30.05 "Hg9 mi
11:00 PM
Tue, Aug 30
71 °FClear.No wind96%30.05 "Hg10 mi
10:00 PM74 °FClear.3 mph91%30.05 "Hg10 mi
9:00 PM76 °FClear.5 mph85%30.05 "Hg10 mi
8:00 PM77 °FSunny.6 mph79%30.03 "Hg10 mi
7:00 PM78 °FSunny.9 mph74%30.03 "Hg10 mi
6:00 PM81 °FSunny.12 mph62%30.04 "Hg10 mi
5:00 PM82 °FPartly sunny.12 mph60%30.05 "Hg10 mi
Weather by CustomWeather, © 2016

See weather overviewHow to use our weather pages